Location: Lake Arresoe
(56.0000°N, 12.5000°E)
Time: 10:43:52
(UTC+02:00)

Resurs 1-4 Rocket - Pass Details

Date: 19 August 2020
Orbit: 799 x 815 km, 98.6° (Epoch: 23 September)

Event Time Altitude Azimuth Distance (km) Brightness Sun altitude
Rises 03:31:44 0° 15° (NNE) 3,331 6.7 -15.5°
Reaches altitude 10° 03:34:05 10° 13° (NNE) 2,394 5.6 -15.3°
Maximum altitude 03:39:19 66° 292° (WNW) 880 2.2 -14.9°
Enters shadow 03:42:40 22° 216° (SW) 1,678 3.1 -14.6°
